EW5937 Weather Reports


Display with metric or nautical units.
time (UTC)temp
F
wind
direction
speed
MPH
gust
MPH
rain 1hr
in
rain 24hr
in
rain mn
in
humidity
%
barometer
mb
20230202154928 37 107 0.0 3.0 0.00 0.00 0.00 49 1030.5
20230202153925 36 136 0.0 1.0 0.00 0.00 0.00 51 1030.4
20230202152925 34 142 0.0 1.0 0.00 0.00 0.00 54 1030.3
20230202151924 32 113 0.0 1.0 0.00 0.00 0.00 58 1030.3
20230202150924 29 120 0.0 1.0 0.00 0.00 0.00 61 1030.0
20230202150028 27 179 0.0 1.0 0.00 0.00 0.00 65 1030.0
20230202145028 25 120 0.0 0.0 0.00 0.00 0.00 68 1030.1
20230202144028 23 120 0.0 0.0 0.00 0.00 0.00 70 1030.1
20230202143028 22 120 0.0 0.0 0.00 0.00 0.00 71 1029.9
20230202142028 21 120 0.0 0.0 0.00 0.00 0.00 73 1029.8
20230202141028 21 120 0.0 1.0 0.00 0.00 0.00 73 1029.3
20230202140028 21 120 0.0 0.0 0.00 0.00 0.00 73 1029.3
20230202135028 21 120 0.0 0.0 0.00 0.00 0.00 72 1029.3
20230202133028 21 120 0.0 0.0 0.00 0.00 0.00 73 1029.1
20230202132027 21 120 0.0 0.0 0.00 0.00 0.00 73 1029.1
20230202131028 20 120 0.0 0.0 0.00 0.00 0.00 74 1029.1
20230202130028 20 120 0.0 1.0 0.00 0.00 0.00 71 1029.2
20230202125028 20 120 0.0 0.0 0.00 0.00 0.00 71 1029.0
20230202124027 21 120 0.0 0.0 0.00 0.00 0.00 69 1028.9
20230202123028 22 120 0.0 0.0 0.00 0.00 0.00 64 1028.8
20230202122028 24 108 0.0 1.0 0.00 0.00 0.00 61 1028.6
20230202121028 26 352 0.0 0.0 0.00 0.00 0.00 60 1028.5
20230202120028 26 352 0.0 1.0 0.00 0.00 0.00 58 1028.5
20230202115028 28 354 0.0 1.0 0.00 0.00 0.00 56 1028.4
20230202114027 31 354 0.0 0.0 0.00 0.00 0.00 53 1028.0
20230202113027 32 354 0.0 0.0 0.00 0.00 0.00 51 1027.7
20230202112028 32 354 0.0 1.0 0.00 0.00 0.00 51 1027.5
20230202111027 32 212 0.0 1.0 0.00 0.00 0.00 50 1027.3
20230202110027 34 335 0.0 0.0 0.00 0.00 0.00 48 1027.3
20230202105027 35 335 0.0 2.0 0.00 0.00 0.00 46 1027.3
20230202104027 36 53 1.0 3.0 0.00 0.00 0.00 46 1027.2
20230202103027 35 75 3.0 4.0 0.00 0.00 0.00 47 1027.1
20230202102027 35 98 0.0 2.0 0.00 0.00 0.00 48 1027.1
20230202101027 34 97 1.0 4.0 0.00 0.00 0.00 49 1027.1
20230202100027 35 115 0.0 1.0 0.00 0.00 0.00 48 1027.0
20230202095027 35 98 1.0 3.0 0.00 0.00 0.00 49 1027.1
20230202094027 34 141 0.0 3.0 0.00 0.00 0.00 51 1027.1
20230202093027 31 90 1.0 4.0 0.00 0.00 0.00 57 1027.1
20230202092027 25 75 0.0 2.0 0.00 0.00 0.00 68 1027.1
20230202091027 23 200 0.0 0.0 0.00 0.00 0.00 69 1027.2
20230202090027 24 200 0.0 0.0 0.00 0.00 0.00 67 1027.2
20230202085027 23 198 0.0 0.0 0.00 0.00 0.00 68 1027.1
20230202084028 23 222 0.0 0.0 0.00 0.00 0.00 69 1027.0
20230202083027 22 206 0.0 0.0 0.00 0.00 0.00 70 1027.1
20230202082027 22 206 0.0 0.0 0.00 0.00 0.00 70 1027.0
20230202081027 22 205 0.0 0.0 0.00 0.00 0.00 70 1027.0
20230202080027 21 205 0.0 0.0 0.00 0.00 0.00 72 1026.8
20230202075027 21 243 0.0 0.0 0.00 0.00 0.00 71 1027.0
20230202074027 22 243 0.0 0.0 0.00 0.00 0.00 71 1027.0
20230202073027 22 247 0.0 0.0 0.00 0.00 0.00 72 1027.1
20230202072027 21 248 0.0 0.0 0.00 0.00 0.00 73 1027.2
20230202071027 21 246 0.0 0.0 0.00 0.00 0.00 73 1027.2
20230202070027 21 293 0.0 0.0 0.00 0.00 0.00 74 1027.2
20230202065027 21 293 0.0 0.0 0.00 0.00 0.02 75 1027.0
20230202064027 21 293 0.0 0.0 0.00 0.00 0.02 75 1026.9
20230202063027 21 293 0.0 0.0 0.00 0.00 0.02 75 1026.9
20230202062027 21 293 0.0 0.0 0.00 0.00 0.02 74 1027.0
20230202061027 22 293 0.0 0.0 0.00 0.00 0.02 73 1026.8
20230202060027 22 293 0.0 0.0 0.00 0.00 0.02 72 1026.7
20230202055027 22 293 0.0 0.0 0.00 0.00 0.02 71 1026.7
20230202054027 22 293 0.0 0.0 0.00 0.00 0.02 70 1026.7
20230202053026 23 293 0.0 0.0 0.00 0.00 0.02 69 1026.6
20230202052027 23 293 0.0 0.0 0.00 0.00 0.02 68 1026.5
20230202051027 24 293 0.0 0.0 0.00 0.00 0.02 67 1026.5
20230202050026 24 293 0.0 0.0 0.00 0.00 0.02 66 1026.5
20230202045026 24 293 0.0 0.0 0.00 0.00 0.02 66 1026.6
20230202044026 25 293 0.0 1.0 0.00 0.00 0.02 64 1026.6
20230202043026 26 299 0.0 1.0 0.00 0.00 0.02 62 1026.5
20230202042027 29 330 0.0 1.0 0.00 0.00 0.02 57 1026.3
20230202041027 34 20 0.0 1.0 0.00 0.00 0.02 49 1026.2
20230202040026 34 101 0.0 1.0 0.00 0.00 0.02 48 1026.0
20230202035026 34 117 0.0 0.0 0.00 0.00 0.02 49 1026.0
20230202034027 35 117 0.0 1.0 0.00 0.00 0.02 46 1026.0
20230202033027 35 134 0.0 1.0 0.00 0.00 0.02 46 1026.1
20230202032026 36 150 0.0 1.0 0.00 0.00 0.02 45 1026.1
20230202031026 36 105 0.0 4.0 0.00 0.00 0.02 45 1026.0
20230202030026 36 135 0.0 4.0 0.00 0.00 0.02 46 1026.1
20230202025026 34 103 0.0 1.0 0.00 0.00 0.02 48 1026.2
20230202024026 35 116 0.0 1.0 0.00 0.00 0.02 47 1026.3
20230202023027 35 122 0.0 0.0 0.00 0.00 0.02 47 1026.3
20230202022026 36 110 0.0 1.0 0.00 0.00 0.02 46 1026.3
20230202021026 36 70 0.0 2.0 0.00 0.00 0.02 46 1026.4
20230202020026 36 96 0.0 1.0 0.00 0.00 0.02 45 1026.4
20230202015026 36 54 0.0 2.0 0.00 0.00 0.02 44 1026.5
20230202014026 37 43 0.0 6.0 0.00 0.00 0.02 44 1026.4
20230202013026 37 88 0.0 4.0 0.00 0.00 0.02 44 1026.4
20230202012026 36 98 0.0 2.0 0.00 0.00 0.02 45 1026.4
20230202011026 36 99 0.0 1.0 0.00 0.00 0.02 45 1026.5
20230202010026 36 53 0.0 1.0 0.00 0.00 0.02 44 1026.7
20230202005026 37 85 0.0 1.0 0.00 0.00 0.02 44 1026.6
20230202004026 37 109 0.0 2.0 0.00 0.00 0.02 43 1026.6
20230202003026 38 110 0.0 2.0 0.00 0.00 0.02 43 1026.5
20230202002026 38 14 0.0 3.0 0.00 0.00 0.02 42 1026.4
20230202001026 38 10 0.0 2.0 0.00 0.00 0.02 44 1026.4
20230202000026 39 342 0.0 4.0 0.00 0.00 0.02 42 1026.4
20230201235442 39 279 0.0 4.0 0.00 0.00 0.02 42 1026.3
20230201234442 39 37 0.0 1.0 0.00 0.00 0.02 41 1026.3
20230201233442 39 340 0.0 1.0 0.00 0.00 0.02 43 1026.3
20230201232442 39 18 0.0 1.0 0.00 0.00 0.02 44 1026.2
20230201231442 39 1 0.0 1.0 0.00 0.00 0.02 44 1026.2
20230201230442 40 316 0.0 3.0 0.00 0.00 0.02 42 1026.1
20230201225442 40 32 1.0 1.0 0.00 0.00 0.02 43 1026.0
20230201224442 40 2 0.0 1.0 0.00 0.00 0.02 45 1025.8
20230201223442 40 358 0.0 1.0 0.00 0.00 0.02 44 1025.6
20230201222442 41 359 0.0 1.0 0.00 0.00 0.02 43 1025.6
20230201221442 41 337 0.0 1.0 0.00 0.00 0.02 41 1025.6
20230201220442 41 340 0.0 1.0 0.00 0.00 0.02 39 1025.6
20230201215442 42 342 1.0 2.0 0.00 0.00 0.02 39 1025.5
20230201214442 43 40 0.0 1.0 0.00 0.00 0.02 38 1025.5
20230201213442 44 51 0.0 1.0 0.00 0.00 0.02 36 1025.4
20230201212442 44 53 0.0 2.0 0.00 0.00 0.02 38 1025.3
20230201211442 44 52 0.0 1.0 0.00 0.00 0.02 37 1025.5
20230201210442 44 71 0.0 1.0 0.00 0.00 0.02 37 1025.6
20230201205442 44 358 0.0 0.0 0.00 0.00 0.02 36 1025.7
20230201204442 45 358 0.0 1.0 0.00 0.00 0.02 35 1025.6